Location: Aubervilles
(48.9167°N, 2.3833°E)
Time: 21:54:31
(UTC+00:00)

ATLAS CENTAUR R/B - Pass Details

Date: 03 February 2023
Orbit: 450 x 653 km, 64.7° (Epoch: 19 March)

Event Time Altitude Azimuth Distance (km) Brightness Sun altitude
Rises 17:14:40 0° 223° (SW) 2,978 6.4 -4.5°
Reaches altitude 10° 17:17:00 10° 225° (SW) 2,060 5.5 -4.8°
Maximum altitude 17:21:42 74° 310° (NW) 671 1.9 -5.6°
Drops below altitude 10° 17:26:14 10° 37° (NE) 1,990 3.7 -6.3°
Enters shadow 17:27:42 - 38° (NE) 2,563 4.2 -6.5°
